Satellite: NOAA-14 Catalog number: 23455 Epoch time: 14114.36018332 Element set: 730 Inclination: 098.7788 deg RA of node: 198.7493 deg Eccentricity: 0.0009662 Arg of perigee: 186.7099 deg Mean anomaly: 214.8236 deg Mean motion: 14.13966883 rev/day Decay rate: 1.43e-06 rev/day^2 Epoch rev: 99634 Checksum: 346
Satellite: NOAA-15 Catalog number: 25338 Epoch time: 14114.50604721 Element set: 161 Inclination: 098.7502 deg RA of node: 108.4767 deg Eccentricity: 0.0009489 Arg of perigee: 307.0689 deg Mean anomaly: 215.9706 deg Mean motion: 14.25404703 rev/day Decay rate: 2.63e-06 rev/day^2 Epoch rev: 82919 Checksum: 308
Satellite: RESURS Catalog number: 25394 Epoch time: 14113.99030237 Element set: 639 Inclination: 098.4077 deg RA of node: 080.6590 deg Eccentricity: 0.0002488 Arg of perigee: 080.9886 deg Mean anomaly: 319.0902 deg Mean motion: 14.24391426 rev/day Decay rate: 6.4e-07 rev/day^2 Epoch rev: 82060 Checksum: 304
Satellite: FENGYUN1 Catalog number: 25730 Epoch time: 14114.49041546 Element set: 131 Inclination: 098.9084 deg RA of node: 075.9281 deg Eccentricity: 0.0024529 Arg of perigee: 262.8612 deg Mean anomaly: 235.4934 deg Mean motion: 14.11820144 rev/day Decay rate: 1.725e-05 rev/day^2 Epoch rev: 76994 Checksum: 300
Satellite: OKEAN-0 Catalog number: 25860 Epoch time: 14113.84464374 Element set: 231 Inclination: 098.0376 deg RA of node: 078.0520 deg Eccentricity: 0.0001218 Arg of perigee: 125.8479 deg Mean anomaly: 293.8913 deg Mean motion: 14.75202336 rev/day Decay rate: 1.162e-05 rev/day^2 Epoch rev: 79414 Checksum: 292
Satellite: NOAA-16 Catalog number: 26536 Epoch time: 14114.36330692 Element set: 652 Inclination: 098.9949 deg RA of node: 174.4794 deg Eccentricity: 0.0009850 Arg of perigee: 342.3239 deg Mean anomaly: 148.3020 deg Mean motion: 14.13028919 rev/day Decay rate: 2.35e-06 rev/day^2 Epoch rev: 70051 Checksum: 306
Satellite: NOAA-17 Catalog number: 27453 Epoch time: 14114.50027891 Element set: 557 Inclination: 098.3129 deg RA of node: 117.0423 deg Eccentricity: 0.0010843 Arg of perigee: 337.4428 deg Mean anomaly: 185.2004 deg Mean motion: 14.24738872 rev/day Decay rate: 2.22e-06 rev/day^2 Epoch rev: 61504 Checksum: 284
Satellite: NOAA-18 Catalog number: 28654 Epoch time: 14114.46958905 Element set: 44 Inclination: 099.1438 deg RA of node: 092.9043 deg Eccentricity: 0.0015130 Arg of perigee: 058.1173 deg Mean anomaly: 050.2576 deg Mean motion: 14.12002854 rev/day Decay rate: 1.52e-06 rev/day^2 Epoch rev: 45998 Checksum: 300
Satellite: NOAA-19 Catalog number: 33591 Epoch time: 14114.48711106 Element set: 209 Inclination: 098.9413 deg RA of node: 059.6968 deg Eccentricity: 0.0012884 Arg of perigee: 271.0297 deg Mean anomaly: 197.7754 deg Mean motion: 14.11698168 rev/day Decay rate: 3.27e-06 rev/day^2 Epoch rev: 26841 Checksum: 337
/EX SB KEPS @ AMSAT $ORB14114.M Orbital Elements 14114.MISC
HR AMSAT ORBITAL ELEMENTS FOR MANNED AND MISCELLANEOUS SATELLITES FROM WA5QGD FORT WORTH,TX April 24, 2014 BID: ORB14114.M TO ALL RADIO AMATEURS BT
Satellite: HUBBLE Catalog number: 20580 Epoch time: 14113.94504252 Element set: 492 Inclination: 028.4718 deg RA of node: 033.6770 deg Eccentricity: 0.0003033 Arg of perigee: 067.4891 deg Mean anomaly: 292.5970 deg Mean motion: 15.05241103 rev/day Decay rate: 4.670e-05 rev/day^2 Epoch rev: 11653 Checksum: 268
Satellite: ISS Catalog number: 25544 Epoch time: 14114.93015130 Element set: 151 Inclination: 051.6496 deg RA of node: 003.5290 deg Eccentricity: 0.0004935 Arg of perigee: 325.7789 deg Mean anomaly: 144.9059 deg Mean motion: 15.50380091 rev/day Decay rate: 4.9486e-04 rev/day^2 Epoch rev: 88306 Checksum: 299
Satellite: CO-58 Catalog number: 28895 Epoch time: 14114.47916473 Element set: 750 Inclination: 097.8392 deg RA of node: 319.1268 deg Eccentricity: 0.0017818 Arg of perigee: 175.9611 deg Mean anomaly: 184.1738 deg Mean motion: 14.61806637 rev/day Decay rate: 1.230e-05 rev/day^2 Epoch rev: 45240 Checksum: 336
Satellite: FALCON Catalog number: 30776 Epoch time: 14113.39215016 Element set: 850 Inclination: 035.4287 deg RA of node: 092.8336 deg Eccentricity: 0.0002395 Arg of perigee: 214.5077 deg Mean anomaly: 273.9915 deg Mean motion: 15.15548144 rev/day Decay rate: 1.3306e-04 rev/day^2 Epoch rev: 39241 Checksum: 291
Satellite: MAST Catalog number: 31126 Epoch time: 14114.51558157 Element set: 27 Inclination: 097.9103 deg RA of node: 098.2237 deg Eccentricity: 0.0093029 Arg of perigee: 160.9944 deg Mean anomaly: 323.4142 deg Mean motion: 14.55200148 rev/day Decay rate: 8.79e-06 rev/day^2 Epoch rev: 37258 Checksum: 293
Satellite: CAPE1 Catalog number: 31130 Epoch time: 14114.48000625 Element set: 33 Inclination: 097.9309 deg RA of node: 094.7788 deg Eccentricity: 0.0099520 Arg of perigee: 178.6515 deg Mean anomaly: 181.4970 deg Mean motion: 14.54341435 rev/day Decay rate: 1.121e-05 rev/day^2 Epoch rev: 37200 Checksum: 278
Satellite: COMPASS Catalog number: 32787 Epoch time: 14114.76551971 Element set: 911 Inclination: 097.7077 deg RA of node: 169.8182 deg Eccentricity: 0.0013531 Arg of perigee: 004.8147 deg Mean anomaly: 355.3197 deg Mean motion: 14.87625695 rev/day Decay rate: 4.659e-05 rev/day^2 Epoch rev: 32424 Checksum: 332
Satellite: AAUSAT2 Catalog number: 32788 Epoch time: 14113.78620163 Element set: 897 Inclination: 097.7086 deg RA of node: 169.7899 deg Eccentricity: 0.0013031 Arg of perigee: 005.9673 deg Mean anomaly: 354.1697 deg Mean motion: 14.88296290 rev/day Decay rate: 5.106e-05 rev/day^2 Epoch rev: 32415 Checksum: 340
Satellite: DO-64 Catalog number: 32789 Epoch time: 14113.80051058 Element set: 935 Inclination: 097.7268 deg RA of node: 175.7952 deg Eccentricity: 0.0011287 Arg of perigee: 353.3343 deg Mean anomaly: 072.4973 deg Mean motion: 14.92772124 rev/day Decay rate: 1.0807e-04 rev/day^2 Epoch rev: 32438 Checksum: 326
Satellite: CO-66 Catalog number: 32791 Epoch time: 14114.13627250 Element set: 892 Inclination: 097.7072 deg RA of node: 168.0824 deg Eccentricity: 0.0014274 Arg of perigee: 009.0863 deg Mean anomaly: 351.0608 deg Mean motion: 14.86338421 rev/day Decay rate: 3.967e-05 rev/day^2 Epoch rev: 32402 Checksum: 303
Satellite: RS-30 Catalog number: 32953 Epoch time: 14114.70696284 Element set: 858 Inclination: 082.5025 deg RA of node: 234.4558 deg Eccentricity: 0.0017881 Arg of perigee: 271.5419 deg Mean anomaly: 088.3617 deg Mean motion: 12.43045831 rev/day Decay rate: 1.0e-07 rev/day^2 Epoch rev: 26861 Checksum: 305
Satellite: METEOR-M Catalog number: 35865 Epoch time: 14114.74630414 Element set: 470 Inclination: 098.5542 deg RA of node: 163.7636 deg Eccentricity: 0.0001520 Arg of perigee: 244.8170 deg Mean anomaly: 115.2849 deg Mean motion: 14.21919287 rev/day Decay rate: 3.9e-07 rev/day^2 Epoch rev: 23874 Checksum: 298
Satellite: RS-38 Catalog number: 35869 Epoch time: 14114.74894157 Element set: 399 Inclination: 098.5482 deg RA of node: 163.5852 deg Eccentricity: 0.0003728 Arg of perigee: 239.1906 deg Mean anomaly: 255.9673 deg Mean motion: 14.22202777 rev/day Decay rate: 8.4e-07 rev/day^2 Epoch rev: 23877 Checksum: 356
Satellite: JUGNU Catalog number: 37839 Epoch time: 14114.47964093 Element set: 604 Inclination: 019.9602 deg RA of node: 220.4400 deg Eccentricity: 0.0019051 Arg of perigee: 111.8020 deg Mean anomaly: 328.9008 deg Mean motion: 14.12295883 rev/day Decay rate: 5.22e-06 rev/day^2 Epoch rev: 13095 Checksum: 270
Satellite: SRMSAT Catalog number: 37841 Epoch time: 14113.47848743 Element set: 608 Inclination: 019.9711 deg RA of node: 244.7332 deg Eccentricity: 0.0012111 Arg of perigee: 042.9091 deg Mean anomaly: 022.5106 deg Mean motion: 14.10339986 rev/day Decay rate: 4.98e-06 rev/day^2 Epoch rev: 13062 Checksum: 278
Satellite: RAX-2 Catalog number: 37853 Epoch time: 14114.60246950 Element set: 786 Inclination: 101.7166 deg RA of node: 118.7209 deg Eccentricity: 0.0218554 Arg of perigee: 211.6072 deg Mean anomaly: 263.8289 deg Mean motion: 14.88769108 rev/day Decay rate: 5.670e-05 rev/day^2 Epoch rev: 13468 Checksum: 325
Satellite: AUBIESAT Catalog number: 37854 Epoch time: 14114.56971689 Element set: 768 Inclination: 101.7204 deg RA of node: 120.3488 deg Eccentricity: 0.0216793 Arg of perigee: 209.0924 deg Mean anomaly: 273.7718 deg Mean motion: 14.90011144 rev/day Decay rate: 7.873e-05 rev/day^2 Epoch rev: 13472 Checksum: 315
Satellite: HRBE Catalog number: 37855 Epoch time: 14114.60036664 Element set: 775 Inclination: 101.7208 deg RA of node: 119.8371 deg Eccentricity: 0.0218724 Arg of perigee: 210.1705 deg Mean anomaly: 265.8807 deg Mean motion: 14.89369834 rev/day Decay rate: 5.759e-05 rev/day^2 Epoch rev: 13470 Checksum: 318
Satellite: RS-39 Catalog number: 38051 Epoch time: 14114.68339677 Element set: 475 Inclination: 051.6271 deg RA of node: 130.9429 deg Eccentricity: 0.0009643 Arg of perigee: 002.6943 deg Mean anomaly: 106.5648 deg Mean motion: 15.53973734 rev/day Decay rate: 7.9832e-04 rev/day^2 Epoch rev: 12577 Checksum: 337
Satellite: E-STAR Catalog number: 38079 Epoch time: 14114.49581089 Element set: 829 Inclination: 069.4547 deg RA of node: 132.0743 deg Eccentricity: 0.0413167 Arg of perigee: 072.1599 deg Mean anomaly: 074.3817 deg Mean motion: 14.96650505 rev/day Decay rate: 1.16169e-03 rev/day^2 Epoch rev: 11539 Checksum: 332
Satellite: GOLIAT Catalog number: 38085 Epoch time: 14114.45986863 Element set: 986 Inclination: 069.4583 deg RA of node: 138.0652 deg Eccentricity: 0.0432857 Arg of perigee: 075.2482 deg Mean anomaly: 289.6210 deg Mean motion: 14.91766125 rev/day Decay rate: 1.04620e-03 rev/day^2 Epoch rev: 11523 Checksum: 325
